TimeMST,TemperatureF,Dew PointF,Humidity,Sea Level PressureIn,VisibilityMPH,Wind Direction,Wind SpeedMPH,Gust SpeedMPH,PrecipitationIn,Events,Conditions,WindDirDegrees,DateUTC
12:54 AM,-9999,-9999,N/A,29.96,-9999.0,North,-9999.0,-,N/A,,Unknown,0,2013-02-08 07:54:00
1:54 AM,-9999,-9999,N/A,29.93,-9999.0,North,-9999.0,-,N/A,,Unknown,0,2013-02-08 08:54:00
2:54 AM,35.1,-9999,N/A,29.80,-9999.0,North,-9999.0,-,N/A,,Unknown,0,2013-02-08 09:54:00
3:54 AM,-9999,-9999,N/A,29.87,-9999.0,North,-9999.0,-,N/A,,Unknown,0,2013-02-08 10:54:00
4:54 AM,33.1,26.1,75,29.75,10.0,South,8.1,-,N/A,,Unknown,180,2013-02-08 11:54:00
5:54 AM,-9999,-9999,N/A,29.84,-9999.0,North,-9999.0,-,N/A,,Unknown,0,2013-02-08 12:54:00
6:54 AM,33.1,26.1,75,29.78,10.0,South,6.9,-,N/A,,Scattered Clouds,180,2013-02-08 13:54:00
7:54 AM,33.1,26.1,75,29.79,10.0,South,8.1,-,N/A,,Unknown,190,2013-02-08 14:54:00
8:54 AM,36.0,26.1,67,29.75,10.0,South,17.3,25.3,N/A,,Mostly Cloudy,190,2013-02-08 15:54:00
9:54 AM,37.9,24.1,57,29.71,10.0,SSW,23.0,35.7,0.00,,Mostly Cloudy,210,2013-02-08 16:54:00
10:54 AM,37.0,23.0,57,29.72,10.0,SSW,19.6,38.0,N/A,,Mostly Cloudy,210,2013-02-08 17:54:00
11:54 AM,37.0,21.0,52,29.77,10.0,SW,31.1,41.4,N/A,,Overcast,220,2013-02-08 18:54:00
12:54 PM,41.0,17.1,38,29.73,10.0,SSW,26.5,44.9,N/A,,Unknown,210,2013-02-08 19:54:00
1:54 PM,41.0,7.0,25,29.72,10.0,SW,29.9,52.9,N/A,,Clear,220,2013-02-08 20:54:00
2:54 PM,-9999,-9999,N/A,29.71,-9999.0,North,-9999.0,-,N/A,,Unknown,0,2013-02-08 21:54:00
3:54 PM,36.0,8.1,31,29.71,10.0,SSW,25.3,38.0,N/A,,Mostly Cloudy,210,2013-02-08 22:54:00
4:54 PM,35.1,8.1,33,29.67,10.0,WSW,20.7,35.7,N/A,,Mostly Cloudy,240,2013-02-08 23:54:00
5:54 PM,32.0,10.0,40,29.73,10.0,WSW,12.7,21.9,N/A,,Overcast,240,2013-02-09 00:54:00
6:54 PM,28.9,17.1,61,29.73,10.0,West,8.1,-,N/A,,Overcast,270,2013-02-09 01:54:00
7:54 PM,28.0,18.0,66,29.73,10.0,Calm,Calm,-,N/A,,Overcast,0,2013-02-09 02:54:00
8:54 PM,28.9,15.1,56,29.70,10.0,SSW,6.9,-,N/A,,Overcast,210,2013-02-09 03:54:00
9:54 PM,27.0,15.1,61,29.69,10.0,SSW,4.6,-,N/A,,Overcast,200,2013-02-09 04:54:00
10:54 PM,28.0,14.0,56,29.67,10.0,South,5.8,-,N/A,,Overcast,180,2013-02-09 05:54:00
11:54 PM,27.0,18.0,69,29.66,10.0,SSW,8.1,-,N/A,,Overcast,200,2013-02-09 06:54:00